STARLINK-32474, 61260

Orbit data source: Space-Track

STARLINK-32474, 61260 is a payload satellite owned by SpaceX/Seattle (US) in LEO that was launched on Wed, 25 Sep 2024 UTC via an FALCON 9 launch vehicle from the Air Force Western Test Range (AFWTR). Payload-class satellites include a variety of spacecraft equipped with specific instruments for various scientific and technological missions. These include communications satellites like Starlink; space stations such as the ISS; scientific satellites like the Hubble; Earth observation satellites from companies like Planet Labs, Umbra, and HawkEye 360; GPS; miniature CubeSats for education and research; and military/defense satellites.

Loading next visibility...
Identifier
61260, 2024-175T
Orbit
LEO
Country
Flag of USUS
Related business
Manufacturer
SpaceX/Seattle
Mission
Operational Commercial Communications
Bus & Motor
STARLINK V2M, Unknown motor
Mass
730 kg wet, ~700 kg dry
Launch date (UTC)
2024-09-25 (1 year ago)
Launch vehicle
FALCON 9
Launch site
Air Force Western Test Range (AFWTR)
Object type
Payload
Rocket body
Debris
Shape & HBR
Box + 2 Pan, 17.7 m
Radar Cross Section
33.884 m², Large (>1 m²)

Expand to show TLE details & history
Last TLE update: 17 hours ago

TLE from 17 hours ago
0 STARLINK-32474
1 61260U 24175T   25350.92996762 -.00010590  00000-0 -34605-3 0  9997
2 61260  53.1596 218.3817 0001392  86.5922 273.5238 15.30187343 68787
Epoch: 2025-12-16T22:19Z
TLE epoch observation values (Epoch: 2025-12-16T22:19:09.202Z)
Latitude
-0.00001°
Longitude
157.78623°
Altitude
476.094 km
Speed
7.629 km/s
True Right ascension
14h 33m 31s
True Declination
0° 00' 00"
Sunlit
Object was in daylight at epoch
Visualization orbit readout
Latitude
Unknown
Longitude
Unknown
Altitude
Unknown
Speed
Unknown
Apparent Right ascension
Unknown
Apparent Declination
Unknown
Sunlit
N/A
Visualization observer readout
Local Sidereal Time
13:39:54
Azimuth
Unknown
Elevation
Unknown
Doppler factor
Unknown
Orbital elements
Apogee altitude
476.463 km
Perigee altitude
474.555 km
Semi-major axis
6,853.646 km
Eccentricity
0.00014
Inclination
53.1596°
RAAN
218.3817°
Arg. of periapsis
86.5922°
True anomaly
273.50788°
Mean anomaly
273.5238°
Eccentric anomaly
273.51584°
Mean motion
3.82526 °/min
Orbital period
94.11 mins
BSTAR
-0.00034605
Loading maneuver chart data...
Computing Atmospheric mass density...
Loading historical data...
Loading historical data...
Loading historical data...
Loading historical data...
Loading historical data...
Loading historical data...
Loading historical data...

Documentation

Showing up to 5 results
|